Regional Weather Roundup
Issued by NWS

Home | Current Version | Previous Version | Text Only | Print | Product List | Glossary Off
Versions: 1 2 3 4 5 6 7 8 9 10 11 12 13 14 15 16 17 18 19 20 21 22 23 24 25 26 27 28 29 30 31 32 33 34 35 36 37 38 39 40 41 42 43 44 45 46 47 48 49 50

367
ASUS45 KSLC 151110
RWRUT

UTAH REGIONAL WEATHER ROUNDUP
NATIONAL WEATHER SERVICE SALT LAKE CITY UT
400 AM MST FRI DEC 15 2017

UTZ001>011-023>025-151200-

NORTHERN UTAH

CITY           SKY/WX    TMP DP  RH WIND       PRES   REMARKS
BRIGHAM CITY   CLEAR     22  18  87 NW3       30.40F
HILL AFB       PTCLDY    25  17  73 E12       30.37F WCI  14
LOGAN          HAZE      16  10  77 CALM      30.40F VSB 1/2
OGDEN          PTCLDY    23  17  78 S7        30.37F WCI  15
SALT LAKE CITY PTCLDY    26  23  88 SE8       30.38F WCI  18
TOOELE VALLEY  PTCLDY    23  19  86 CALM      30.38F
WENDOVER       PTCLDY    13  10  88 CALM      30.38F
HEBER CITY     FOG       18  14  86 CALM      30.38S VSB 1/4
WEST JORDAN    PTCLDY    24  21  90 CALM      30.39S

$$

UTZ011>015-024>027-151200-

CENTRAL/NORTHEAST UTAH

CITY           SKY/WX    TMP DP  RH WIND       PRES   REMARKS
PROVO AIRPORT  PTCLDY    16  14  92 CALM      30.42F
MOAB/CANYONLAN PTCLDY    26  15  63 CALM      30.35S
DELTA          MOCLDY    12  10  92 E7        30.39F WCI   2
PRICE          PTCLDY    22  11  62 N8        30.32F WCI  12
RICHFIELD      CLEAR     10   9  92 CALM      30.40F
ROOSEVELT      CLOUDY    16  10  79 W5        30.36F WCI   9
VERNAL         CLOUDY    15  11  83 CALM      30.34F

$$

UTZ013>016-019>022-027-151200-

SOUTHERN UTAH

CITY           SKY/WX    TMP DP  RH WIND       PRES   REMARKS
BRYCE CANYON   PTCLDY    11   2  67 W7        30.37F WCI   0
CEDAR CITY     PTCLDY    12  11  95 NE3       30.36R
MILFORD        PTCLDY    14  12  92 S8        30.38F WCI   3
ST GEORGE      MOSUNNY   34  16  47 E8        30.37R WCI  27
HANKSVILLE     MOCLDY    16   3  57 CALM      30.38F
KANAB          CLEAR     23   7  50 NE6       30.38F WCI  16
BLANDING         N/A     28   1  31 N7        30.39R WCI  21

$$

REGIONAL REPORTS     COLORADO/ARIZONA

CITY           SKY/WX    TMP DP  RH WIND       PRES   REMARKS
CRAIG, CO      CLOUDY     2  -3  80 W6        30.33F WCI  -9
GRAND JUNCTION CLOUDY    20  12  71 SE13      30.37F WCI   7
RIFLE, CO      CLOUDY    13   6  74 SE3       30.40F
MONTROSE, CO   CLOUDY    17  10  74 SE9       30.42R WCI   6
CORTEZ, CO     CLOUDY    15   2  56 E12       30.32S WCI   2
COLORADO CITY    N/A     18   9  68 SE6       30.36F WCI   9
PAGE, AZ       MOCLDY    32  12  43 CALM      30.34F HAZE
GRAND CANYON   MOCLDY    12  -4  48 CALM      30.34F
KINGMAN, AZ    PTCLDY    39  13  34 NE12      30.28F WCI  32
FLAGSTAFF, AZ  PTCLDY    33 -10  15 E7        30.33F WCI  27

$$

REGIONAL REPORTS    NEVADA/IDAHO/WYOMING

CITY           SKY/WX    TMP DP  RH WIND       PRES   REMARKS
LAS VEGAS, NV  CLEAR     45  18  34 CALM      30.30R
ELY, NY        PTCLDY    13   4  67 S16       30.36F WCI  -3
ELKO, NV       MOCLDY    12   8  84 CALM      30.35F
POCATELLO, ID  CLOUDY    22  19  89 NE7       30.37F FOG     WCI  13
BURLEY, ID     CLOUDY    23  20  88 E6        30.34F FOG     WCI  16
FORT BRIDGER,    N/A     30   7  36 W6        30.30S WCI  24
EVANSTON, WY   CLOUDY    21  16  81 SW12      30.31S WCI   9
ROCK SPRINGS,  CLOUDY    28  10  46 W17G28    30.21F WCI  16

$$




USA.gov is the U.S. government's official web portal to all federal, state and local government web resources and services.